Wind_Speed
15 14 14 14 13 13 12 11 11 11 12 14 15 16 17 18 15 14 16 8 5 6 6 7 10 10 9 9 10 4 2 8 8 8 2 16 4 2 8 13 22 13 22 29 9
17 15 14 14 13 12 12 11 10 11 12 14 15 16 17 16 10 5 2 3 3 3 6 6 10 8 6 8 7 5 5 9 5 8 11 22 10 20 11 20 16 27 26 29 10
19 18 16 15 14 13 11 10 10 11 13 15 15 14 13 11 4 8 3 3 3 4 4 7 8 6 5 6 7 5 6 3 2 5 7 18 15 19 12 16 9 20 29 30 16
20 19 19 17 16 14 12 11 10 11 14 15 14 10 8 5 2 6 10 7 5 4 4 3 5 4 4 5 6 4 4 3 3 13 14 11 23 18 23 33 22 21 26 23 22
21 21 20 20 18 15 14 13 10 10 12 13 11 7 5 4 1 6 5 4 5 4 3 1 2 2 2 3 4 3 4 10 12 15 18 22 20 20 37 35 21 21 20 23 23
23 22 22 21 20 17 14 12 10 9 10 11 9 7 3 3 2 3 3 6 5 7 3 1 1 4 2 2 1 3 4 10 6 9 10 11 14 17 38 23 25 20 23 21 23
23 23 23 21 21 17 14 11 9 8 8 9 8 6 7 6 4 2 3 6 8 8 6 5 6 5 2 4 2 5 4 5 5 8 8 11 13 18 29 31 27 26 23 23 23
26 24 22 21 20 15 11 9 8 8 7 6 6 6 6 4 4 3 5 4 3 2 7 7 10 7 2 4 6 4 4 3 5 2 6 13 18 4 8 12 19 19 20 15 19
26 25 22 21 18 12 8 7 8 6 4 3 4 4 4 4 4 2 1 2 6 5 7 10 10 3 2 3 5 6 1 2 6 4 4 6 3 5 14 16 18 23 25 29 30
25 25 21 17 14 8 8 9 6 6 6 2 3 4 0 7 5 7 3 4 6 9 6 1 3 2 3 4 2 3 3 4 5 6 4 11 8 6 11 8 13 19 24 30 32
24 23 18 13 10 7 14 4 8 2 15 8 9 11 13 4 5 7 2 5 3 4 3 3 4 3 6 7 6 3 3 4 5 6 7 11 17 9 9 8 11 17 22 25 29
22 20 14 6 6 6 8 9 9 8 9 15 15 16 17 13 8 7 3 4 1 2 3 6 2 6 4 3 4 2 3 1 4 4 5 9 22 15 5 6 9 16 19 23 29
21 19 11 1 2 3 7 8 7 11 2 9 3 4 5 8 7 10 5 4 1 2 1 3 7 6 1 5 3 1 3 2 3 5 4 6 15 8 2 5 16 15 16 26 32
19 17 8 3 4 5 6 8 9 8 3 4 2 2 4 5 4 8 13 8 1 6 2 4 4 2 5 3 0 3 2 2 6 6 5 4 13 8 5 8 5 16 23 27 28
19 14 3 4 3 3 7 9 6 4 4 3 0 3 2 5 4 5 12 12 7 6 5 8 4 5 3 1 1 4 3 3 2 4 4 2 5 13 15 17 9 9 21 16 18
15 7 2 4 2 8 11 4 2 4 2 3 3 5 4 6 7 10 7 10 2 4 3 7 1 2 3 1 1 3 3 5 4 2 2 8 7 13 1 3 6 7 19 16 19
9 5 5 4 4 12 6 1 4 4 5 5 3 6 3 4 5 5 1 5 1 2 2 4 2 2 5 3 4 6 5 4 4 2 5 3 3 12 15 15 6 5 16 20 21
7 7 8 2 9 13 5 4 5 2 2 2 4 5 3 7 5 7 3 3 5 4 2 2 4 5 3 3 4 5 6 4 4 3 10 9 7 7 5 6 6 13 17 23 28
6 6 5 5 10 13 4 4 4 1 3 3 6 2 3 4 2 7 5 3 2 2 3 2 5 4 6 3 5 2 3 5 4 4 2 5 9 9 16 7 8 11 17 26 32
3 4 6 8 12 10 4 2 2 2 4 1 1 1 3 2 1 4 2 4 5 4 6 2 4 6 3 3 3 6 4 1 2 3 4 5 7 10 10 14 7 10 17 27 34
4 2 7 10 9 4 3 4 4 11 11 5 5 4 5 2 2 2 5 6 5 3 4 4 5 4 1 4 6 2 1 2 2 4 3 4 5 5 10 10 9 12 23 27 34
5 2 6 9 5 2 1 2 6 6 9 4 5 6 5 4 4 4 5 5 6 7 5 5 4 4 9 13 8 4 6 6 4 5 3 4 19 9 8 8 10 17 24 26 25
7 5 5 5 2 3 6 5 4 3 4 4 3 1 2 3 2 5 4 4 13 5 5 5 1 3 7 4 4 3 4 4 2 2 14 9 12 5 11 14 18 20 23 20 25
6 3 4 4 4 2 3 4 5 9 1 3 4 1 4 3 4 5 4 4 4 1 12 7 5 7 7 9 3 10 12 14 13 5 8 15 29 19 11 10 13 21 15 17 30
7 2 2 4 2 2 3 3 3 4 7 8 4 2 4 4 4 6 5 6 10 12 7 7 7 7 10 14 13 17 19 18 17 21 15 19 18 24 7 8 10 17 19 21 20
6 6 5 6 9 5 1 0 2 3 3 5 2 7 6 6 7 8 6 5 9 6 4 2 4 4 4 10 16 19 17 17 18 14 9 11 17 13 11 16 12 14 17 20 18
5 4 4 4 4 2 3 1 3 9 9 7 5 5 6 9 12 23 24 24 17 8 6 6 4 2 16 11 10 11 14 7 4 6 4 8 11 6 12 11 14 19 21 21 22
Wind_Direction
359 357 352 346 344 341 338 334 331 327 324 324 326 328 325 319 306 287 274 264 232 222 242 224 227 230 225 226 200 187 134 221 232 249 281 298 315 266 318 312 322 331 347 354 296
353 352 349 343 338 337 334 331 330 329 325 323 324 326 324 326 321 337 346 154 157 228 257 257 231 228 196 214 205 180 197 210 209 236 311 294 306 314 334 324 313 322 328 349 339
351 347 343 339 333 327 325 324 325 326 326 324 326 326 330 344 360 3 58 73 74 59 253 238 227 212 218 219 203 205 231 149 241 261 279 283 297 301 312 292 303 314 319 329 333
351 346 340 335 330 323 315 311 316 322 326 328 331 330 340 357 100 81 76 77 63 38 51 120 181 194 200 212 223 260 247 246 266 276 281 272 296 285 282 267 292 294 304 310 306
348 344 341 337 328 319 312 305 306 316 326 333 337 337 346 337 103 101 66 37 18 341 343 346 39 210 227 274 322 223 277 286 294 284 275 281 275 283 275 272 289 299 294 291 291
350 343 338 336 331 320 311 303 299 307 324 332 334 331 307 303 121 54 340 324 328 292 300 308 309 326 189 277 194 311 281 292 294 286 263 255 265 263 271 299 303 296 292 287 281
351 345 337 334 332 323 314 311 297 296 314 325 325 318 265 231 213 299 298 322 343 282 266 311 305 303 298 301 313 297 325 326 230 232 223 247 263 247 270 292 294 292 292 288 290
347 345 339 334 333 327 325 319 304 295 293 304 314 316 259 171 238 205 290 290 328 358 254 294 309 280 282 309 352 8 49 8 284 238 251 193 251 305 347 331 319 339 320 321 300
345 343 341 337 335 339 347 342 322 303 281 262 297 305 274 212 212 227 204 279 305 314 286 279 289 215 343 52 5 14 345 282 301 285 268 188 313 332 322 326 317 325 325 324 320
342 342 342 343 343 11 8 30 29 78 46 320 247 314 8 330 211 289 239 262 311 333 343 60 164 113 40 72 258 291 324 298 283 308 309 294 274 260 285 283 296 309 320 323 322
341 340 344 353 10 47 53 27 23 11 321 262 272 273 281 316 271 293 260 269 310 350 14 356 74 199 245 210 227 234 220 230 275 323 344 296 301 305 279 274 287 301 315 316 315
340 339 343 356 37 50 47 48 44 336 302 298 267 258 261 278 299 279 259 207 86 302 358 13 280 226 271 262 212 184 193 272 277 311 323 307 297 298 267 259 283 305 313 317 318
342 338 340 309 18 36 69 41 352 347 317 298 262 250 230 239 232 259 235 243 162 287 90 168 251 301 328 331 354 223 124 284 264 305 260 299 283 248 300 306 305 300 314 311 308
342 335 337 160 114 87 36 357 348 346 56 276 257 284 202 229 262 267 244 222 202 210 231 249 279 319 350 313 66 304 22 30 344 18 305 62 293 262 234 263 297 302 295 293 295
340 333 323 133 126 35 334 313 324 312 55 179 139 315 309 211 293 256 227 208 216 205 116 248 263 302 309 197 287 242 352 337 287 299 301 169 273 262 316 292 263 263 294 315 308
343 352 170 133 45 333 313 306 300 49 33 26 47 325 360 260 261 272 218 214 235 172 232 253 268 146 150 333 14 26 349 2 21 58 294 220 205 296 173 333 319 300 303 308 313
0 22 129 146 343 341 331 209 47 86 329 12 327 329 2 310 1 8 219 37 61 347 341 342 358 36 77 9 352 57 53 337 338 346 237 299 305 263 301 298 285 280 301 302 307
45 95 123 89 352 357 355 57 77 21 355 23 307 314 85 9 357 352 70 107 30 61 66 161 306 187 182 159 229 257 159 163 263 237 285 293 245 253 234 228 271 274 286 301 310
100 98 54 7 351 351 340 58 168 232 251 296 322 41 341 351 74 23 351 154 122 102 146 240 264 274 295 269 131 243 188 207 214 250 251 229 267 285 275 242 281 290 305 302 319
61 84 24 354 338 336 70 218 234 317 333 153 96 291 298 274 47 18 278 209 167 178 145 215 278 251 281 4 272 169 181 232 16 272 256 270 263 247 294 284 284 306 298 307 317
0 55 5 349 338 1 111 249 286 324 329 189 212 244 253 245 238 254 248 307 168 164 145 162 169 277 10 210 206 266 277 88 151 155 221 294 252 226 256 277 269 280 288 303 312
3 29 349 1 39 26 346 284 299 291 332 267 184 205 215 233 242 232 234 232 200 175 187 198 162 246 239 269 235 186 211 168 141 269 235 275 276 249 259 260 259 270 281 307 320
348 312 352 345 87 331 315 295 266 304 352 320 297 322 354 258 271 225 225 258 325 176 179 180 207 308 324 359 355 136 190 182 201 316 256 258 267 305 320 313 289 280 284 313 338
2 0 339 50 84 86 341 278 311 313 257 333 268 25 11 271 223 280 269 281 349 269 297 197 172 184 239 251 231 290 275 266 256 248 269 237 273 272 283 298 311 312 286 335 350
17 43 4 305 332 350 261 274 285 320 335 339 300 45 277 263 268 248 248 297 285 275 279 163 207 207 239 256 267 264 266 268 262 260 251 277 265 278 262 273 302 327 335 340 322
22 2 340 290 301 324 286 213 298 331 277 278 302 301 298 234 226 284 282 238 248 270 209 181 260 201 255 250 250 268 271 263 266 269 253 274 280 278 278 295 301 320 322 309 302
18 338 313 284 323 338 242 48 323 320 286 261 312 307 266 264 299 290 271 259 246 226 203 177 164 77 281 257 263 270 250 220 236 236 213 262 270 291 306 314 318 320 311 306 326
Height
1510 1508 1505 1503 1501 1499 1497 1495 1493 1492 1490 1488 1486 1484 1481 1478 1477 1474 1472 1473 1474 1474 1476 1477 1478 1479 1479 1480 1481 1481 1490 1491 1483 1479 1475 1469 1472 1468 1469 1467 1465 1464 1467 1463 1454
1510 1507 1504 1502 1499 1497 1496 1494 1492 1491 1489 1487 1485 1483 1479 1476 1473 1471 1472 1470 1472 1472 1474 1475 1475 1477 1479 1479 1480 1480 1488 1483 1475 1474 1472 1467 1472 1468 1467 1465 1461 1458 1459 1462 1459
1509 1506 1503 1501 1498 1496 1494 1492 1491 1490 1488 1485 1483 1481 1478 1476 1474 1472 1471 1471 1472 1472 1473 1473 1475 1476 1477 1477 1477 1475 1476 1472 1471 1474 1479 1473 1470 1469 1470 1462 1465 1464 1462 1461 1466
1509 1506 1502 1499 1496 1494 1492 1490 1489 1488 1486 1484 1482 1480 1478 1477 1479 1474 1472 1472 1472 1473 1474 1474 1475 1475 1475 1476 1473 1476 1469 1470 1472 1475 1476 1473 1467 1466 1465 1457 1464 1465 1466 1464 1466
1508 1504 1501 1497 1494 1492 1489 1488 1487 1486 1485 1483 1481 1479 1479 1478 1476 1475 1474 1473 1473 1473 1474 1474 1474 1474 1475 1474 1473 1472 1471 1472 1472 1471 1470 1470 1466 1465 1448 1454 1463 1462 1465 1464 1465
1506 1502 1498 1495 1492 1489 1487 1486 1485 1484 1483 1481 1480 1479 1479 1479 1475 1475 1475 1474 1474 1474 1474 1473 1474 1474 1474 1473 1474 1472 1471 1470 1468 1468 1467 1468 1464 1464 1440 1452 1456 1459 1460 1460 1460
1504 1500 1496 1492 1489 1486 1484 1484 1483 1483 1482 1480 1479 1478 1478 1476 1475 1475 1474 1474 1474 1474 1474 1473 1473 1473 1472 1471 1470 1470 1470 1468 1466 1463 1461 1461 1457 1450 1451 1448 1450 1453 1455 1457 1457
1503 1498 1493 1490 1486 1483 1482 1482 1481 1481 1480 1479 1478 1478 1475 1474 1475 1474 1474 1473 1473 1473 1473 1472 1472 1470 1470 1471 1469 1471 1473 1477 1463 1458 1455 1457 1450 1449 1451 1449 1444 1446 1448 1453 1452
1501 1496 1491 1488 1484 1482 1481 1480 1479 1478 1478 1479 1479 1478 1474 1474 1475 1474 1474 1473 1472 1472 1472 1472 1471 1471 1470 1474 1480 1479 1481 1475 1467 1455 1456 1458 1457 1451 1451 1449 1446 1442 1442 1442 1443
1498 1494 1490 1486 1484 1482 1481 1480 1479 1479 1479 1479 1479 1481 1475 1475 1474 1473 1473 1473 1472 1471 1469 1469 1470 1473 1479 1483 1492 1482 1480 1474 1472 1461 1457 1456 1453 1452 1448 1446 1445 1443 1443 1438 1434
1495 1491 1488 1485 1484 1484 1483 1481 1483 1482 1479 1478 1477 1477 1475 1475 1473 1473 1472 1472 1471 1471 1474 1471 1477 1480 1475 1475 1474 1476 1479 1478 1471 1465 1466 1458 1447 1448 1446 1444 1442 1439 1440 1439 1435
1492 1489 1486 1485 1484 1484 1484 1483 1485 1487 1479 1473 1472 1473 1472 1474 1474 1470 1471 1472 1471 1474 1472 1476 1478 1469 1468 1468 1471 1472 1475 1476 1472 1465 1464 1461 1445 1441 1441 1439 1438 1437 1436 1436 1432
1490 1486 1484 1484 1484 1484 1484 1484 1484 1483 1482 1472 1470 1470 1470 1472 1471 1468 1470 1470 1470 1472 1472 1477 1471 1466 1467 1468 1470 1471 1473 1473 1474 1466 1460 1458 1442 1439 1435 1435 1435 1436 1436 1435 1432
1489 1485 1483 1482 1486 1484 1484 1483 1483 1482 1488 1475 1471 1470 1470 1470 1469 1465 1466 1470 1470 1471 1470 1472 1465 1465 1468 1470 1468 1471 1467 1468 1468 1473 1478 1460 1454 1438 1436 1435 1434 1432 1431 1427 1425
1486 1483 1482 1481 1483 1483 1484 1482 1481 1482 1502 1472 1471 1470 1469 1470 1467 1463 1464 1465 1467 1467 1470 1471 1465 1467 1469 1467 1465 1469 1464 1467 1466 1470 1470 1468 1474 1416 1428 1433 1433 1427 1427 1428 1424
1483 1481 1481 1483 1483 1482 1480 1480 1481 1491 1493 1473 1471 1471 1470 1466 1463 1462 1461 1462 1464 1466 1466 1466 1463 1464 1466 1465 1465 1466 1468 1472 1474 1478 1485 1467 1469 1428 1432 1431 1431 1427 1425 1423 1420
1482 1481 1481 1484 1484 1481 1478 1479 1489 1496 1474 1479 1477 1472 1472 1470 1467 1463 1460 1468 1471 1474 1473 1468 1467 1465 1466 1470 1469 1472 1483 1500 1494 1484 1477 1461 1466 1437 1430 1426 1424 1423 1419 1417 1415
1483 1482 1484 1484 1483 1480 1478 1481 1490 1479 1481 1476 1475 1473 1475 1472 1470 1467 1466 1474 1470 1471 1480 1483 1481 1468 1467 1469 1473 1472 1477 1496 1486 1481 1471 1460 1460 1440 1424 1421 1419 1418 1417 1412 1407
1485 1484 1484 1485 1483 1481 1480 1492 1493 1482 1478 1478 1476 1476 1477 1473 1473 1472 1471 1471 1469 1470 1480 1480 1478 1464 1463 1464 1467 1470 1475 1470 1478 1474 1479 1461 1440 1429 1416 1416 1414 1413 1411 1407 1403
1486 1485 1485 1484 1483 1481 1483 1487 1483 1478 1477 1475 1481 1477 1479 1476 1476 1476 1473 1467 1470 1468 1467 1473 1480 1465 1462 1462 1461 1464 1464 1476 1485 1478 1472 1452 1442 1432 1419 1413 1411 1408 1407 1403 1400
1488 1486 1485 1484 1483 1482 1495 1489 1480 1477 1475 1475 1477 1477 1476 1475 1474 1474 1471 1465 1463 1467 1466 1470 1477 1471 1465 1465 1465 1466 1467 1471 1475 1483 1484 1470 1440 1420 1417 1413 1412 1407 1402 1400 1395
1489 1489 1486 1484 1485 1489 1490 1485 1480 1476 1473 1471 1471 1471 1473 1472 1472 1471 1470 1465 1462 1462 1465 1467 1476 1478 1467 1453 1454 1457 1462 1464 1479 1476 1467 1459 1422 1413 1412 1410 1407 1401 1398 1397 1392
1491 1490 1488 1486 1495 1494 1488 1484 1480 1476 1475 1472 1471 1470 1470 1471 1475 1467 1463 1459 1459 1461 1463 1465 1474 1475 1463 1456 1454 1452 1457 1457 1459 1463 1455 1457 1420 1407 1406 1407 1405 1400 1397 1393 1388
1494 1495 1489 1488 1490 1491 1492 1485 1480 1476 1474 1473 1471 1469 1470 1470 1468 1468 1463 1458 1458 1458 1458 1460 1466 1466 1467 1459 1460 1455 1451 1449 1451 1452 1443 1435 1412 1412 1410 1407 1403 1399 1395 1391 1387
1497 1499 1499 1498 1493 1493 1493 1486 1482 1480 1475 1473 1471 1470 1472 1472 1469 1466 1461 1459 1455 1454 1453 1454 1462 1464 1457 1453 1451 1448 1445 1442 1442 1435 1436 1420 1418 1400 1404 1403 1402 1399 1395 1389 1387
1501 1502 1499 1496 1493 1492 1488 1485 1484 1482 1481 1477 1475 1472 1471 1471 1468 1466 1463 1461 1456 1451 1450 1454 1457 1456 1452 1449 1446 1440 1432 1428 1426 1421 1418 1413 1408 1399 1398 1399 1398 1396 1393 1387 1384
1503 1502 1501 1495 1493 1493 1489 1486 1485 1486 1477 1475 1474 1472 1469 1464 1461 1457 1454 1450 1447 1447 1451 1454 1456 1461 1442 1441 1440 1435 1420 1417 1417 1414 1415 1414 1401 1398 1398 1397 1395 1394 1391 1386 1381